Time,TemperatureF,DewpointF,PressureIn,WindDirection,WindDirectionDegrees,WindSpeedMPH,WindSpeedGustMPH,Humidity,HourlyPrecipIn,Conditions,Clouds,dailyrainin,SoftwareType,DateUTC
2013-03-03 00:00:00,52.4,38.9,30.01,NW,313,4.0,15.0,60,0.00,,,0.01,Wunderground v.1.13,2013-03-03 05:00:00,
2013-03-03 00:04:00,52.4,38.9,30.01,NW,319,3.0,15.0,60,0.00,,,0.01,Wunderground v.1.13,2013-03-03 05:04:00,
2013-03-03 00:06:00,52.4,39.3,30.01,NW,309,3.0,3.0,61,0.00,,,0.01,Wunderground v.1.13,2013-03-03 05:06:00,
2013-03-03 00:12:00,52.4,39.3,30.01,NW,315,2.0,2.0,61,0.00,,,0.01,Wunderground v.1.13,2013-03-03 05:12:00,
2013-03-03 00:14:00,52.4,39.3,30.01,NW,314,2.0,2.0,61,0.00,,,0.01,Wunderground v.1.13,2013-03-03 05:14:00,
2013-03-03 00:20:00,52.3,39.2,30.01,NW,306,0.0,17.0,61,0.00,,,0.01,Wunderground v.1.13,2013-03-03 05:20:00,
2013-03-03 00:26:00,52.2,39.1,30.01,WNW,298,1.0,17.0,61,0.00,,,0.01,Wunderground v.1.13,2013-03-03 05:26:00,
2013-03-03 00:32:00,52.1,38.6,30.01,West,279,2.0,6.0,60,0.00,,,0.01,Wunderground v.1.13,2013-03-03 05:32:00,
2013-03-03 00:38:00,51.6,39.0,30.01,North,360,3.0,17.0,62,0.00,,,0.01,Wunderground v.1.13,2013-03-03 05:38:00,
2013-03-03 00:44:00,50.2,38.9,30.01,NW,318,6.0,17.0,65,0.00,,,0.00,Wunderground v.1.13,2013-03-03 05:44:00,
2013-03-03 00:50:00,49.3,38.4,30.01,NNW,341,6.0,17.0,66,0.00,,,0.00,Wunderground v.1.13,2013-03-03 05:50:00,
2013-03-03 00:56:00,48.8,38.3,30.02,North,355,4.0,17.0,67,0.00,,,0.00,Wunderground v.1.13,2013-03-03 05:56:00,
2013-03-03 01:02:00,48.4,37.6,30.02,North,350,3.0,17.0,66,0.00,,,0.00,Wunderground v.1.13,2013-03-03 06:02:00,
2013-03-03 01:08:00,48.2,37.4,30.02,North,360,4.0,4.0,66,0.00,,,0.00,Wunderground v.1.13,2013-03-03 06:08:00,
2013-03-03 01:14:00,48.0,37.2,30.02,NNW,342,2.0,3.0,66,0.00,,,0.00,Wunderground v.1.13,2013-03-03 06:14:00,
2013-03-03 01:20:00,47.7,36.9,30.02,NNE,15,2.0,18.0,66,0.00,,,0.00,Wunderground v.1.13,2013-03-03 06:20:00,
2013-03-03 01:26:00,47.3,35.7,30.02,NNE,14,3.0,7.0,64,0.00,,,0.00,Wunderground v.1.13,2013-03-03 06:26:00,
2013-03-03 01:32:00,46.6,34.3,30.02,NE,51,6.0,18.0,62,0.00,,,0.00,Wunderground v.1.13,2013-03-03 06:32:00,
2013-03-03 01:38:00,46.0,33.7,30.03,NE,52,8.0,18.0,62,0.00,,,0.00,Wunderground v.1.13,2013-03-03 06:38:00,
2013-03-03 01:44:00,45.5,32.8,30.03,NE,38,8.0,18.0,61,0.00,,,0.00,Wunderground v.1.13,2013-03-03 06:44:00,
2013-03-03 01:50:00,45.2,33.3,30.04,North,350,8.0,18.0,63,0.00,,,0.00,Wunderground v.1.13,2013-03-03 06:50:00,
2013-03-03 01:56:00,45.0,33.2,30.04,NNE,15,6.0,18.0,63,0.00,,,0.00,Wunderground v.1.13,2013-03-03 06:56:00,
2013-03-03 02:02:00,44.7,33.3,30.03,NE,55,6.0,18.0,64,0.00,,,0.00,Wunderground v.1.13,2013-03-03 07:02:00,
2013-03-03 02:08:00,44.6,33.2,30.03,NE,34,5.0,6.0,64,0.00,,,0.00,Wunderground v.1.13,2013-03-03 07:08:00,
2013-03-03 02:14:00,44.4,32.6,30.03,North,355,7.0,10.0,63,0.00,,,0.00,Wunderground v.1.13,2013-03-03 07:14:00,
2013-03-03 02:20:00,44.2,32.4,30.03,North,355,7.0,17.0,63,0.00,,,0.00,Wunderground v.1.13,2013-03-03 07:20:00,
2013-03-03 02:26:00,44.1,32.7,30.03,NE,41,5.0,17.0,64,0.00,,,0.00,Wunderground v.1.13,2013-03-03 07:26:00,
2013-03-03 02:32:00,43.9,32.5,30.03,NNE,31,4.0,17.0,64,0.00,,,0.00,Wunderground v.1.13,2013-03-03 07:32:00,
2013-03-03 02:38:00,43.8,32.4,30.03,NNW,340,5.0,6.0,64,0.00,,,0.00,Wunderground v.1.13,2013-03-03 07:38:00,
2013-03-03 02:44:00,43.7,32.3,30.04,NE,40,5.0,6.0,64,0.00,,,0.00,Wunderground v.1.13,2013-03-03 07:44:00,
2013-03-03 02:50:00,43.6,32.2,30.04,NNE,14,6.0,17.0,64,0.00,,,0.00,Wunderground v.1.13,2013-03-03 07:50:00,
2013-03-03 02:56:00,43.7,32.7,30.03,ENE,68,5.0,7.0,65,0.00,,,0.00,Wunderground v.1.13,2013-03-03 07:56:00,
2013-03-03 03:02:00,43.8,32.4,30.03,NNE,15,4.0,17.0,64,0.00,,,0.00,Wunderground v.1.13,2013-03-03 08:02:00,
2013-03-03 03:08:00,44.0,33.0,30.03,NE,48,5.0,5.0,65,0.00,,,0.00,Wunderground v.1.13,2013-03-03 08:08:00,
2013-03-03 03:14:00,44.0,32.2,30.03,NE,53,7.0,9.0,63,0.00,,,0.00,Wunderground v.1.13,2013-03-03 08:14:00,
2013-03-03 03:20:00,43.9,32.5,30.03,NE,48,6.0,9.0,64,0.00,,,0.00,Wunderground v.1.13,2013-03-03 08:20:00,
2013-03-03 03:26:00,44.0,32.2,30.04,NE,45,6.0,9.0,63,0.00,,,0.00,Wunderground v.1.13,2013-03-03 08:26:00,
2013-03-03 03:32:00,43.9,32.1,30.04,NNE,13,6.0,13.0,63,0.00,,,0.00,Wunderground v.1.13,2013-03-03 08:32:00,
2013-03-03 03:38:00,43.9,32.5,30.04,NE,54,5.0,13.0,64,0.00,,,0.00,Wunderground v.1.13,2013-03-03 08:38:00,
2013-03-03 03:44:00,43.9,32.5,30.04,NNE,30,6.0,13.0,64,0.00,,,0.00,Wunderground v.1.13,2013-03-03 08:44:00,
2013-03-03 03:50:00,43.9,32.1,30.03,NE,46,6.0,13.0,63,0.00,,,0.00,Wunderground v.1.13,2013-03-03 08:50:00,
2013-03-03 03:56:00,44.0,32.2,30.03,NE,48,5.0,7.0,63,0.00,,,0.00,Wunderground v.1.13,2013-03-03 08:56:00,
2013-03-03 04:02:00,44.1,32.7,30.03,NE,46,4.0,13.0,64,0.00,,,0.00,Wunderground v.1.13,2013-03-03 09:02:00,
2013-03-03 04:08:00,44.2,32.8,30.03,North,360,3.0,4.0,64,0.00,,,0.00,Wunderground v.1.13,2013-03-03 09:08:00,
2013-03-03 04:14:00,44.2,32.8,30.03,NNE,18,4.0,7.0,64,0.00,,,0.00,Wunderground v.1.13,2013-03-03 09:14:00,
2013-03-03 04:20:00,44.3,33.3,30.03,NE,37,3.0,12.0,65,0.00,,,0.00,Wunderground v.1.13,2013-03-03 09:20:00,
2013-03-03 04:26:00,44.3,33.3,30.03,ENE,57,2.0,12.0,65,0.00,,,0.00,Wunderground v.1.13,2013-03-03 09:26:00,
2013-03-03 04:32:00,44.3,33.3,30.03,NE,56,4.0,12.0,65,0.00,,,0.00,Wunderground v.1.13,2013-03-03 09:32:00,
2013-03-03 04:38:00,44.3,33.3,30.03,NE,46,4.0,12.0,65,0.00,,,0.00,Wunderground v.1.13,2013-03-03 09:38:00,
2013-03-03 04:44:00,44.3,33.3,30.04,ENE,57,5.0,12.0,65,0.00,,,0.00,Wunderground v.1.13,2013-03-03 09:44:00,
2013-03-03 04:50:00,44.2,33.2,30.03,NE,45,5.0,12.0,65,0.00,,,0.00,Wunderground v.1.13,2013-03-03 09:50:00,
2013-03-03 04:56:00,44.1,32.7,30.03,NE,51,6.0,12.0,64,0.00,,,0.00,Wunderground v.1.13,2013-03-03 09:56:00,
2013-03-03 05:02:00,44.1,32.7,30.03,NE,39,5.0,7.0,64,0.00,,,0.00,Wunderground v.1.13,2013-03-03 10:02:00,
2013-03-03 05:08:00,43.9,32.5,30.03,NE,42,5.0,6.0,64,0.00,,,0.00,Wunderground v.1.13,2013-03-03 10:08:00,
2013-03-03 05:14:00,43.9,32.9,30.03,NE,45,6.0,6.0,65,0.00,,,0.00,Wunderground v.1.13,2013-03-03 10:14:00,
2013-03-03 05:20:00,43.8,32.8,30.03,NNW,341,5.0,13.0,65,0.00,,,0.00,Wunderground v.1.13,2013-03-03 10:20:00,
2013-03-03 05:26:00,43.8,32.8,30.03,NE,51,5.0,13.0,65,0.00,,,0.00,Wunderground v.1.13,2013-03-03 10:26:00,
2013-03-03 05:32:00,43.8,32.8,30.03,NE,51,3.0,13.0,65,0.00,,,0.00,Wunderground v.1.13,2013-03-03 10:32:00,
2013-03-03 05:38:00,43.8,33.2,30.04,NE,38,3.0,5.0,66,0.00,,,0.00,Wunderground v.1.13,2013-03-03 10:38:00,
2013-03-03 05:44:00,43.9,33.6,30.04,NNE,21,3.0,13.0,67,0.00,,,0.00,Wunderground v.1.13,2013-03-03 10:44:00,
2013-03-03 05:50:00,43.9,34.0,30.05,NE,44,1.0,13.0,68,0.00,,,0.00,Wunderground v.1.13,2013-03-03 10:50:00,
2013-03-03 05:56:00,43.9,33.6,30.05,NE,45,1.0,13.0,67,0.00,,,0.00,Wunderground v.1.13,2013-03-03 10:56:00,
2013-03-03 06:02:00,43.9,33.6,30.05,NE,44,1.0,13.0,67,0.00,,,0.00,Wunderground v.1.13,2013-03-03 11:02:00,
2013-03-03 06:08:00,43.9,33.6,30.05,NE,54,1.0,1.0,67,0.00,,,0.00,Wunderground v.1.13,2013-03-03 11:08:00,
2013-03-03 06:14:00,43.7,33.5,30.05,ENE,70,3.0,3.0,67,0.00,,,0.00,Wunderground v.1.13,2013-03-03 11:14:00,
2013-03-03 06:20:00,43.7,33.5,30.05,NNE,19,4.0,10.0,67,0.00,,,0.00,Wunderground v.1.13,2013-03-03 11:20:00,
2013-03-03 06:26:00,43.7,33.8,30.05,NE,46,3.0,8.0,68,0.00,,,0.00,Wunderground v.1.13,2013-03-03 11:26:00,
2013-03-03 06:32:00,43.7,33.5,30.06,NE,47,2.0,10.0,67,0.00,,,0.00,Wunderground v.1.13,2013-03-03 11:32:00,
2013-03-03 06:38:00,43.7,33.5,30.06,NE,55,3.0,10.0,67,0.00,,,0.00,Wunderground v.1.13,2013-03-03 11:38:00,
2013-03-03 06:44:00,43.6,33.4,30.06,NE,46,2.0,4.0,67,0.00,,,0.00,Wunderground v.1.13,2013-03-03 11:44:00,
2013-03-03 06:50:00,43.6,33.4,30.06,ENE,58,2.0,10.0,67,0.00,,,0.00,Wunderground v.1.13,2013-03-03 11:50:00,
2013-03-03 06:56:00,43.6,33.4,30.06,NE,44,2.0,10.0,67,0.00,,,0.00,Wunderground v.1.13,2013-03-03 11:56:00,
2013-03-03 07:02:00,43.5,33.3,30.06,NE,37,0.0,7.0,67,0.00,,,0.00,Wunderground v.1.13,2013-03-03 12:02:00,
2013-03-03 07:08:00,43.4,33.2,30.06,NE,51,1.0,1.0,67,0.00,,,0.00,Wunderground v.1.13,2013-03-03 12:08:00,
2013-03-03 07:14:00,43.4,33.2,30.06,NE,45,3.0,3.0,67,0.00,,,0.00,Wunderground v.1.13,2013-03-03 12:14:00,
2013-03-03 07:20:00,43.4,33.2,30.06,NE,46,2.0,10.0,67,0.00,,,0.00,Wunderground v.1.13,2013-03-03 12:20:00,
2013-03-03 07:26:00,43.5,33.3,30.06,NNE,33,1.0,10.0,67,0.00,,,0.00,Wunderground v.1.13,2013-03-03 12:26:00,
2013-03-03 07:32:00,43.4,32.8,30.06,NE,49,2.0,10.0,66,0.00,,,0.00,Wunderground v.1.13,2013-03-03 12:32:00,
2013-03-03 07:38:00,43.4,32.8,30.06,NE,42,5.0,10.0,66,0.00,,,0.00,Wunderground v.1.13,2013-03-03 12:38:00,
2013-03-03 07:44:00,43.4,33.2,30.06,NE,53,3.0,10.0,67,0.00,,,0.00,Wunderground v.1.13,2013-03-03 12:44:00,
2013-03-03 07:50:00,43.3,33.8,30.06,NE,40,2.0,10.0,69,0.00,,,0.00,Wunderground v.1.13,2013-03-03 12:50:00,
2013-03-03 07:56:00,43.3,33.4,30.06,NE,36,1.0,10.0,68,0.00,,,0.00,Wunderground v.1.13,2013-03-03 12:56:00,
2013-03-03 08:02:00,43.2,34.1,30.06,NE,56,3.0,10.0,70,0.00,,,0.00,Wunderground v.1.13,2013-03-03 13:02:00,
2013-03-03 08:08:00,43.0,33.5,30.07,NE,42,5.0,10.0,69,0.00,,,0.00,Wunderground v.1.13,2013-03-03 13:08:00,
2013-03-03 08:14:00,43.0,33.9,30.07,NE,37,6.0,7.0,70,0.00,,,0.00,Wunderground v.1.13,2013-03-03 13:14:00,
2013-03-03 08:20:00,43.0,33.9,30.07,NE,50,4.0,11.0,70,0.00,,,0.00,Wunderground v.1.13,2013-03-03 13:20:00,
2013-03-03 08:26:00,42.9,34.1,30.07,NNE,32,0.0,11.0,71,0.00,,,0.00,Wunderground v.1.13,2013-03-03 13:26:00,
2013-03-03 08:32:00,42.9,34.1,30.08,ENE,58,0.0,11.0,71,0.00,,,0.00,Wunderground v.1.13,2013-03-03 13:32:00,
2013-03-03 08:38:00,42.9,34.5,30.08,NE,35,0.0,11.0,72,0.00,,,0.00,Wunderground v.1.13,2013-03-03 13:38:00,
2013-03-03 08:44:00,43.0,33.9,30.08,NE,50,1.0,11.0,70,0.00,,,0.00,Wunderground v.1.13,2013-03-03 13:44:00,
2013-03-03 08:50:00,43.0,33.5,30.08,NNE,32,1.0,11.0,69,0.00,,,0.00,Wunderground v.1.13,2013-03-03 13:50:00,
2013-03-03 08:56:00,43.1,34.0,30.09,NE,55,1.0,11.0,70,0.00,,,0.00,Wunderground v.1.13,2013-03-03 13:56:00,
2013-03-03 09:02:00,43.2,34.1,30.09,NE,38,1.0,11.0,70,0.00,,,0.00,Wunderground v.1.13,2013-03-03 14:02:00,
2013-03-03 09:08:00,43.3,33.8,30.09,ENE,57,0.0,0.0,69,0.00,,,0.00,Wunderground v.1.13,2013-03-03 14:08:00,
2013-03-03 09:14:00,43.3,33.8,30.10,NNE,18,0.0,0.0,69,0.00,,,0.00,Wunderground v.1.13,2013-03-03 14:14:00,
2013-03-03 09:20:00,43.4,33.9,30.09,NE,37,0.0,11.0,69,0.00,,,0.00,Wunderground v.1.13,2013-03-03 14:20:00,
2013-03-03 09:26:00,43.5,34.4,30.09,ENE,64,0.0,11.0,70,0.00,,,0.00,Wunderground v.1.13,2013-03-03 14:26:00,
2013-03-03 09:32:00,43.7,34.2,30.09,NE,49,0.0,11.0,69,0.00,,,0.00,Wunderground v.1.13,2013-03-03 14:32:00,
2013-03-03 09:38:00,43.9,34.4,30.09,NNE,15,0.0,11.0,69,0.00,,,0.00,Wunderground v.1.13,2013-03-03 14:38:00,
2013-03-03 09:44:00,44.0,34.8,30.10,ENE,57,0.0,11.0,70,0.00,,,0.00,Wunderground v.1.13,2013-03-03 14:44:00,
2013-03-03 09:50:00,44.0,34.5,30.10,NNE,22,0.0,11.0,69,0.00,,,0.00,Wunderground v.1.13,2013-03-03 14:50:00,
2013-03-03 09:56:00,44.1,34.2,30.10,NE,36,0.0,11.0,68,0.00,,,0.00,Wunderground v.1.13,2013-03-03 14:56:00,
2013-03-03 10:02:00,44.4,34.5,30.10,ENE,61,0.0,11.0,68,0.00,,,0.00,Wunderground v.1.13,2013-03-03 15:02:00,
2013-03-03 10:08:00,44.8,34.5,30.10,NE,51,0.0,2.0,67,0.00,,,0.00,Wunderground v.1.13,2013-03-03 15:08:00,
2013-03-03 10:14:00,44.7,34.4,30.10,NNE,30,1.0,3.0,67,0.00,,,0.00,Wunderground v.1.13,2013-03-03 15:14:00,
2013-03-03 10:20:00,44.8,34.5,30.10,North,9,1.0,3.0,67,0.00,,,0.00,Wunderground v.1.13,2013-03-03 15:20:00,
2013-03-03 10:26:00,44.9,34.6,30.10,NNE,26,0.0,3.0,67,0.00,,,0.00,Wunderground v.1.13,2013-03-03 15:26:00,
2013-03-03 10:32:00,45.1,34.4,30.10,NE,34,0.0,3.0,66,0.00,,,0.00,Wunderground v.1.13,2013-03-03 15:32:00,
2013-03-03 10:38:00,45.0,34.7,30.10,ENE,57,1.0,3.0,67,0.00,,,0.00,Wunderground v.1.13,2013-03-03 15:38:00,
2013-03-03 10:44:00,45.1,35.2,30.10,NE,55,0.0,3.0,68,0.00,,,0.00,Wunderground v.1.13,2013-03-03 15:44:00,
2013-03-03 10:50:00,45.2,34.9,30.11,NNE,22,0.0,3.0,67,0.00,,,0.00,Wunderground v.1.13,2013-03-03 15:50:00,
2013-03-03 10:56:00,45.2,34.5,30.10,NE,55,0.0,3.0,66,0.00,,,0.00,Wunderground v.1.13,2013-03-03 15:56:00,
2013-03-03 11:02:00,45.2,34.9,30.11,NE,55,0.0,3.0,67,0.00,,,0.00,Wunderground v.1.13,2013-03-03 16:02:00,
2013-03-03 11:08:00,45.3,35.0,30.10,NE,48,0.0,0.0,67,0.00,,,0.00,Wunderground v.1.13,2013-03-03 16:08:00,
2013-03-03 11:14:00,45.4,35.1,30.11,NE,44,0.0,0.0,67,0.00,,,0.00,Wunderground v.1.13,2013-03-03 16:14:00,
2013-03-03 11:20:00,45.4,35.1,30.10,NE,42,0.0,3.0,67,0.00,,,0.00,Wunderground v.1.13,2013-03-03 16:20:00,
2013-03-03 11:26:00,45.7,35.4,30.09,NE,37,0.0,3.0,67,0.00,,,0.00,Wunderground v.1.13,2013-03-03 16:26:00,
2013-03-03 11:32:00,46.1,35.7,30.09,NE,34,0.0,3.0,67,0.00,,,0.00,Wunderground v.1.13,2013-03-03 16:32:00,
2013-03-03 11:38:00,46.3,35.9,30.09,North,360,0.0,3.0,67,0.00,,,0.00,Wunderground v.1.13,2013-03-03 16:38:00,
2013-03-03 11:44:00,46.8,36.8,30.09,ENE,57,0.0,3.0,68,0.00,,,0.00,Wunderground v.1.13,2013-03-03 16:44:00,
2013-03-03 11:50:00,47.2,36.4,30.08,NE,34,0.0,3.0,66,0.00,,,0.00,Wunderground v.1.13,2013-03-03 16:50:00,
2013-03-03 11:56:00,47.7,36.5,30.08,NNE,31,0.0,3.0,65,0.00,,,0.00,Wunderground v.1.13,2013-03-03 16:56:00,
2013-03-03 12:02:00,47.9,36.7,30.08,NW,325,0.0,3.0,65,0.00,,,0.00,Wunderground v.1.13,2013-03-03 17:02:00,
2013-03-03 12:08:00,48.3,37.1,30.07,North,9,0.0,0.0,65,0.00,,,0.00,Wunderground v.1.13,2013-03-03 17:08:00,
2013-03-03 12:14:00,48.6,37.0,30.07,NW,309,1.0,1.0,64,0.00,,,0.00,Wunderground v.1.13,2013-03-03 17:14:00,
2013-03-03 12:20:00,48.8,37.6,30.07,WNW,296,2.0,3.0,65,0.00,,,0.00,Wunderground v.1.13,2013-03-03 17:20:00,
2013-03-03 12:26:00,49.2,38.3,30.07,WNW,298,1.0,3.0,66,0.00,,,0.00,Wunderground v.1.13,2013-03-03 17:26:00,
2013-03-03 12:32:00,49.9,38.2,30.07,WNW,291,0.0,3.0,64,0.00,,,0.00,Wunderground v.1.13,2013-03-03 17:32:00,
2013-03-03 12:38:00,50.7,39.4,30.06,WNW,288,3.0,6.0,65,0.00,,,0.00,Wunderground v.1.13,2013-03-03 17:38:00,
2013-03-03 12:44:00,51.8,39.6,30.06,NW,313,3.0,4.0,63,0.00,,,0.00,Wunderground v.1.13,2013-03-03 17:44:00,
2013-03-03 12:50:00,52.3,39.2,30.06,NW,316,4.0,5.0,61,0.00,,,0.00,Wunderground v.1.13,2013-03-03 17:50:00,
2013-03-03 12:56:00,52.4,38.9,30.06,NW,309,7.0,11.0,60,0.00,,,0.00,Wunderground v.1.13,2013-03-03 17:56:00,
2013-03-03 13:02:00,52.3,38.4,30.06,NW,311,10.0,17.0,59,0.00,,,0.00,Wunderground v.1.13,2013-03-03 18:02:00,
2013-03-03 13:08:00,52.4,38.9,30.06,NW,314,9.0,11.0,60,0.00,,,0.00,Wunderground v.1.13,2013-03-03 18:08:00,
2013-03-03 13:14:00,52.8,38.9,30.05,NNE,19,9.0,9.0,59,0.00,,,0.00,Wunderground v.1.13,2013-03-03 18:14:00,
2013-03-03 13:20:00,52.5,39.4,30.05,NW,314,8.0,18.0,61,0.00,,,0.00,Wunderground v.1.13,2013-03-03 18:20:00,
2013-03-03 13:26:00,52.0,38.5,30.06,NNW,329,9.0,18.0,60,0.00,,,0.00,Wunderground v.1.13,2013-03-03 18:26:00,
2013-03-03 13:32:00,52.0,39.4,30.05,WNW,287,8.0,18.0,62,0.00,,,0.00,Wunderground v.1.13,2013-03-03 18:32:00,
2013-03-03 13:38:00,52.4,39.8,30.05,WNW,302,6.0,18.0,62,0.00,,,0.00,Wunderground v.1.13,2013-03-03 18:38:00,
2013-03-03 13:44:00,52.3,38.8,30.05,NW,322,7.0,18.0,60,0.00,,,0.00,Wunderground v.1.13,2013-03-03 18:44:00,
2013-03-03 13:50:00,52.5,39.4,30.05,NW,319,7.0,18.0,61,0.00,,,0.00,Wunderground v.1.13,2013-03-03 18:50:00,
2013-03-03 13:56:00,52.8,39.3,30.05,NW,322,4.0,18.0,60,0.00,,,0.00,Wunderground v.1.13,2013-03-03 18:56:00,
2013-03-03 14:02:00,52.4,38.9,30.05,NW,319,7.0,18.0,60,0.00,,,0.00,Wunderground v.1.13,2013-03-03 19:02:00,
2013-03-03 14:08:00,52.3,39.2,30.05,NW,317,6.0,8.0,61,0.00,,,0.00,Wunderground v.1.13,2013-03-03 19:08:00,
2013-03-03 14:14:00,52.5,39.4,30.05,NW,317,3.0,10.0,61,0.00,,,0.00,Wunderground v.1.13,2013-03-03 19:14:00,
2013-03-03 14:20:00,52.0,38.5,30.05,NW,309,5.0,20.0,60,0.00,,,0.00,Wunderground v.1.13,2013-03-03 19:20:00,
2013-03-03 14:26:00,52.0,39.0,30.05,NW,307,5.0,16.0,61,0.00,,,0.00,Wunderground v.1.13,2013-03-03 19:26:00,
2013-03-03 14:32:00,51.7,38.7,30.05,NNW,334,7.0,20.0,61,0.00,,,0.00,Wunderground v.1.13,2013-03-03 19:32:00,
2013-03-03 14:38:00,52.0,38.5,30.05,West,272,6.0,20.0,60,0.00,,,0.00,Wunderground v.1.13,2013-03-03 19:38:00,
2013-03-03 14:44:00,52.1,37.8,30.05,West,266,5.0,20.0,58,0.00,,,0.00,Wunderground v.1.13,2013-03-03 19:44:00,
2013-03-03 14:50:00,51.9,38.4,30.05,NNW,328,5.0,20.0,60,0.00,,,0.00,Wunderground v.1.13,2013-03-03 19:50:00,
2013-03-03 14:56:00,51.6,37.7,30.05,NW,315,6.0,20.0,59,0.00,,,0.00,Wunderground v.1.13,2013-03-03 19:56:00,
2013-03-03 15:02:00,51.4,38.0,30.05,NW,319,7.0,20.0,60,0.00,,,0.00,Wunderground v.1.13,2013-03-03 20:02:00,
2013-03-03 15:08:00,51.8,38.3,30.05,NW,310,4.0,18.0,60,0.00,,,0.00,Wunderground v.1.13,2013-03-03 20:08:00,
2013-03-03 15:14:00,51.5,38.5,30.05,NW,318,5.0,6.0,61,0.00,,,0.00,Wunderground v.1.13,2013-03-03 20:14:00,
2013-03-03 15:20:00,51.6,38.6,30.05,WNW,294,5.0,20.0,61,0.00,,,0.00,Wunderground v.1.13,2013-03-03 20:20:00,
2013-03-03 15:26:00,52.1,39.1,30.05,NW,315,5.0,20.0,61,0.00,,,0.00,Wunderground v.1.13,2013-03-03 20:26:00,
2013-03-03 15:32:00,52.0,38.5,30.05,NW,321,4.0,6.0,60,0.00,,,0.00,Wunderground v.1.13,2013-03-03 20:32:00,
2013-03-03 15:38:00,52.0,38.5,30.05,NW,308,4.0,20.0,60,0.00,,,0.00,Wunderground v.1.13,2013-03-03 20:38:00,
2013-03-03 15:44:00,51.7,38.7,30.05,NW,309,7.0,16.0,61,0.00,,,0.00,Wunderground v.1.13,2013-03-03 20:44:00,
2013-03-03 15:50:00,51.4,38.8,30.05,NW,317,7.0,20.0,62,0.00,,,0.00,Wunderground v.1.13,2013-03-03 20:50:00,
2013-03-03 15:56:00,51.5,39.3,30.05,NNW,332,3.0,5.0,63,0.00,,,0.00,Wunderground v.1.13,2013-03-03 20:56:00,
2013-03-03 16:02:00,51.8,39.2,30.05,NNW,340,4.0,10.0,62,0.00,,,0.00,Wunderground v.1.13,2013-03-03 21:02:00,
2013-03-03 16:08:00,51.7,39.5,30.05,NW,321,4.0,6.0,63,0.00,,,0.00,Wunderground v.1.13,2013-03-03 21:08:00,
2013-03-03 16:14:00,51.5,38.9,30.05,WNW,294,4.0,11.0,62,0.00,,,0.00,Wunderground v.1.13,2013-03-03 21:14:00,
2013-03-03 16:20:00,51.8,38.8,30.05,NW,326,3.0,10.0,61,0.00,,,0.00,Wunderground v.1.13,2013-03-03 21:20:00,
2013-03-03 16:26:00,51.5,38.9,30.05,WNW,300,4.0,19.0,62,0.00,,,0.00,Wunderground v.1.13,2013-03-03 21:26:00,
2013-03-03 16:32:00,51.4,38.8,30.05,WNW,294,3.0,19.0,62,0.00,,,0.00,Wunderground v.1.13,2013-03-03 21:32:00,
2013-03-03 16:38:00,51.5,38.9,30.05,NNW,332,5.0,12.0,62,0.00,,,0.00,Wunderground v.1.13,2013-03-03 21:38:00,
2013-03-03 16:44:00,51.7,39.9,30.05,West,281,5.0,19.0,64,0.00,,,0.00,Wunderground v.1.13,2013-03-03 21:44:00,
2013-03-03 16:50:00,51.9,40.1,30.06,NNW,328,2.0,19.0,64,0.00,,,0.00,Wunderground v.1.13,2013-03-03 21:50:00,
2013-03-03 16:56:00,52.0,39.4,30.06,WNW,301,2.0,19.0,62,0.00,,,0.00,Wunderground v.1.13,2013-03-03 21:56:00,
2013-03-03 17:02:00,51.8,39.2,30.06,NW,321,3.0,3.0,62,0.00,,,0.00,Wunderground v.1.13,2013-03-03 22:02:00,
2013-03-03 17:08:00,51.7,38.7,30.06,NNW,334,5.0,5.0,61,0.00,,,0.00,Wunderground v.1.13,2013-03-03 22:08:00,
2013-03-03 17:14:00,51.6,39.0,30.06,WNW,286,4.0,4.0,62,0.00,,,0.00,Wunderground v.1.13,2013-03-03 22:14:00,
2013-03-03 17:20:00,51.5,38.9,30.07,NW,315,1.0,11.0,62,0.00,,,0.00,Wunderground v.1.13,2013-03-03 22:20:00,
2013-03-03 17:26:00,51.4,38.4,30.07,NNW,328,4.0,10.0,61,0.00,,,0.00,Wunderground v.1.13,2013-03-03 22:26:00,
2013-03-03 17:32:00,51.1,38.5,30.07,West,281,4.0,13.0,62,0.00,,,0.00,Wunderground v.1.13,2013-03-03 22:32:00,
2013-03-03 17:38:00,51.0,38.0,30.07,WNW,303,2.0,13.0,61,0.00,,,0.00,Wunderground v.1.13,2013-03-03 22:38:00,
2013-03-03 17:44:00,50.7,38.1,30.07,NW,311,4.0,4.0,62,0.00,,,0.00,Wunderground v.1.13,2013-03-03 22:44:00,
2013-03-03 17:50:00,50.3,37.4,30.07,NNW,328,6.0,13.0,61,0.00,,,0.00,Wunderground v.1.13,2013-03-03 22:50:00,
2013-03-03 17:56:00,50.1,37.6,30.08,NW,313,5.0,13.0,62,0.00,,,0.00,Wunderground v.1.13,2013-03-03 22:56:00,
2013-03-03 18:02:00,50.1,38.0,30.08,NW,306,4.0,13.0,63,0.00,,,0.00,Wunderground v.1.13,2013-03-03 23:02:00,
2013-03-03 18:08:00,50.1,37.6,30.08,WNW,284,2.0,2.0,62,0.00,,,0.00,Wunderground v.1.13,2013-03-03 23:08:00,
2013-03-03 18:14:00,49.9,37.4,30.08,NW,317,4.0,12.0,62,0.00,,,0.00,Wunderground v.1.13,2013-03-03 23:14:00,
2013-03-03 18:20:00,49.7,38.0,30.08,NW,311,4.0,21.0,64,0.00,,,0.00,Wunderground v.1.13,2013-03-03 23:20:00,
2013-03-03 18:26:00,49.6,37.9,30.08,WNW,298,2.0,21.0,64,0.00,,,0.00,Wunderground v.1.13,2013-03-03 23:26:00,
2013-03-03 18:32:00,49.6,38.3,30.09,NW,316,2.0,21.0,65,0.00,,,0.00,Wunderground v.1.13,2013-03-03 23:32:00,
2013-03-03 18:38:00,49.5,38.2,30.09,NNW,338,1.0,21.0,65,0.00,,,0.00,Wunderground v.1.13,2013-03-03 23:38:00,
2013-03-03 18:44:00,49.5,38.2,30.09,NW,307,2.0,21.0,65,0.00,,,0.00,Wunderground v.1.13,2013-03-03 23:44:00,
2013-03-03 18:50:00,49.4,38.5,30.09,NW,320,2.0,21.0,66,0.00,,,0.00,Wunderground v.1.13,2013-03-03 23:50:00,
2013-03-03 18:56:00,49.4,38.1,30.09,NNW,329,0.0,21.0,65,0.00,,,0.00,Wunderground v.1.13,2013-03-03 23:56:00,
2013-03-03 19:02:00,49.4,38.1,30.10,NW,319,1.0,21.0,65,0.00,,,0.00,Wunderground v.1.13,2013-03-04 00:02:00,
2013-03-03 19:08:00,49.4,38.5,30.10,NW,309,2.0,2.0,66,0.00,,,0.00,Wunderground v.1.13,2013-03-04 00:08:00,
2013-03-03 19:14:00,49.3,38.4,30.11,WNW,296,2.0,2.0,66,0.00,,,0.00,Wunderground v.1.13,2013-03-04 00:14:00,
2013-03-03 19:20:00,49.3,38.4,30.11,NW,315,2.0,2.0,66,0.00,,,0.00,Wunderground v.1.13,2013-03-04 00:20:00,
2013-03-03 19:26:00,49.2,38.3,30.11,NNW,338,2.0,16.0,66,0.00,,,0.00,Wunderground v.1.13,2013-03-04 00:26:00,
2013-03-03 19:32:00,49.1,38.6,30.11,NW,319,2.0,16.0,67,0.00,,,0.00,Wunderground v.1.13,2013-03-04 00:32:00,
2013-03-03 19:38:00,49.1,38.2,30.11,NW,305,2.0,16.0,66,0.00,,,0.00,Wunderground v.1.13,2013-03-04 00:38:00,
2013-03-03 19:44:00,49.1,38.2,30.12,NW,315,2.0,16.0,66,0.00,,,0.00,Wunderground v.1.13,2013-03-04 00:44:00,
2013-03-03 19:50:00,49.1,38.2,30.12,NW,306,2.0,16.0,66,0.00,,,0.00,Wunderground v.1.13,2013-03-04 00:50:00,
2013-03-03 19:56:00,49.1,38.6,30.12,NNW,339,1.0,16.0,67,0.00,,,0.00,Wunderground v.1.13,2013-03-04 00:56:00,
2013-03-03 20:02:00,49.1,38.6,30.12,NW,319,1.0,16.0,67,0.00,,,0.00,Wunderground v.1.13,2013-03-04 01:02:00,
2013-03-03 20:08:00,49.0,38.5,30.12,NNW,341,2.0,9.0,67,0.00,,,0.00,Wunderground v.1.13,2013-03-04 01:08:00,
2013-03-03 20:14:00,49.0,38.5,30.13,NW,321,3.0,3.0,67,0.00,,,0.00,Wunderground v.1.13,2013-03-04 01:14:00,
2013-03-03 20:20:00,49.0,38.5,30.13,NW,319,1.0,17.0,67,0.00,,,0.00,Wunderground v.1.13,2013-03-04 01:20:00,
2013-03-03 20:26:00,48.9,38.8,30.13,NW,315,0.0,17.0,68,0.00,,,0.00,Wunderground v.1.13,2013-03-04 01:26:00,
2013-03-03 20:32:00,48.9,38.4,30.14,NW,314,0.0,17.0,67,0.00,,,0.00,Wunderground v.1.13,2013-03-04 01:32:00,
2013-03-03 20:38:00,49.0,38.5,30.14,NW,323,0.0,17.0,67,0.00,,,0.00,Wunderground v.1.13,2013-03-04 01:38:00,
2013-03-03 20:44:00,49.0,38.5,30.14,NNW,336,0.0,17.0,67,0.00,,,0.00,Wunderground v.1.13,2013-03-04 01:44:00,
2013-03-03 20:50:00,49.1,38.6,30.14,NW,309,0.0,17.0,67,0.00,,,0.00,Wunderground v.1.13,2013-03-04 01:50:00,
2013-03-03 20:56:00,49.2,38.7,30.14,NW,324,0.0,17.0,67,0.00,,,0.00,Wunderground v.1.13,2013-03-04 01:56:00,
2013-03-03 21:02:00,49.3,38.8,30.14,NW,322,0.0,17.0,67,0.00,,,0.00,Wunderground v.1.13,2013-03-04 02:02:00,
2013-03-03 21:08:00,49.4,38.9,30.14,NW,312,0.0,0.0,67,0.00,,,0.00,Wunderground v.1.13,2013-03-04 02:08:00,
2013-03-03 21:14:00,49.5,39.4,30.15,NW,314,0.0,0.0,68,0.00,,,0.00,Wunderground v.1.13,2013-03-04 02:14:00,
2013-03-03 21:20:00,49.6,39.1,30.15,WNW,292,0.0,4.0,67,0.00,,,0.00,Wunderground v.1.13,2013-03-04 02:20:00,
2013-03-03 21:26:00,49.8,39.3,30.15,NW,322,0.0,4.0,67,0.00,,,0.00,Wunderground v.1.13,2013-03-04 02:26:00,
2013-03-03 21:32:00,50.0,39.1,30.15,North,355,0.0,4.0,66,0.00,,,0.00,Wunderground v.1.13,2013-03-04 02:32:00,
2013-03-03 21:38:00,50.0,39.1,30.15,NNW,329,0.0,4.0,66,0.00,,,0.00,Wunderground v.1.13,2013-03-04 02:38:00,
2013-03-03 21:44:00,50.0,39.1,30.15,NW,316,0.0,4.0,66,0.00,,,0.00,Wunderground v.1.13,2013-03-04 02:44:00,
2013-03-03 21:50:00,50.1,39.6,30.16,NW,317,0.0,4.0,67,0.00,,,0.00,Wunderground v.1.13,2013-03-04 02:50:00,
2013-03-03 21:56:00,50.2,39.7,30.16,NW,317,0.0,4.0,67,0.00,,,0.00,Wunderground v.1.13,2013-03-04 02:56:00,
2013-03-03 22:02:00,50.3,39.4,30.16,NW,318,0.0,4.0,66,0.00,,,0.00,Wunderground v.1.13,2013-03-04 03:02:00,
2013-03-03 22:08:00,50.4,39.5,30.16,NW,317,0.0,0.0,66,0.00,,,0.00,Wunderground v.1.13,2013-03-04 03:08:00,
2013-03-03 22:14:00,50.4,39.9,30.17,NW,317,0.0,0.0,67,0.00,,,0.00,Wunderground v.1.13,2013-03-04 03:14:00,
2013-03-03 22:20:00,50.5,39.9,30.17,NW,313,0.0,5.0,67,0.00,,,0.00,Wunderground v.1.13,2013-03-04 03:20:00,
2013-03-03 22:26:00,50.6,40.4,30.17,NW,313,0.0,5.0,68,0.00,,,0.00,Wunderground v.1.13,2013-03-04 03:26:00,
2013-03-03 22:32:00,50.7,40.5,30.16,NW,323,0.0,5.0,68,0.00,,,0.00,Wunderground v.1.13,2013-03-04 03:32:00,
2013-03-03 22:38:00,50.7,40.5,30.17,NNW,331,0.0,5.0,68,0.00,,,0.00,Wunderground v.1.13,2013-03-04 03:38:00,
2013-03-03 22:44:00,50.7,40.5,30.17,NW,313,1.0,5.0,68,0.00,,,0.00,Wunderground v.1.13,2013-03-04 03:44:00,
2013-03-03 22:50:00,50.7,40.1,30.17,NW,313,1.0,5.0,67,0.00,,,0.00,Wunderground v.1.13,2013-03-04 03:50:00,
2013-03-03 22:56:00,50.6,40.0,30.17,NW,314,1.0,5.0,67,0.00,,,0.00,Wunderground v.1.13,2013-03-04 03:56:00,
2013-03-03 23:02:00,50.7,40.1,30.17,NW,311,0.0,5.0,67,0.00,,,0.00,Wunderground v.1.13,2013-03-04 04:02:00,
2013-03-03 23:08:00,50.8,40.2,30.17,NNW,329,1.0,9.0,67,0.00,,,0.00,Wunderground v.1.13,2013-03-04 04:08:00,
2013-03-03 23:14:00,50.8,40.2,30.17,NW,318,2.0,3.0,67,0.00,,,0.00,Wunderground v.1.13,2013-03-04 04:14:00,
2013-03-03 23:20:00,50.8,40.2,30.17,NW,323,2.0,10.0,67,0.00,,,0.00,Wunderground v.1.13,2013-03-04 04:20:00,
2013-03-03 23:26:00,50.7,40.1,30.17,WNW,284,2.0,10.0,67,0.00,,,0.00,Wunderground v.1.13,2013-03-04 04:26:00,
2013-03-03 23:32:00,50.6,40.4,30.17,NW,307,2.0,10.0,68,0.00,,,0.00,Wunderground v.1.13,2013-03-04 04:32:00,
2013-03-03 23:38:00,50.6,40.4,30.17,NW,321,0.0,10.0,68,0.00,,,0.00,Wunderground v.1.13,2013-03-04 04:38:00,
2013-03-03 23:44:00,50.6,39.7,30.17,NNW,338,2.0,7.0,66,0.00,,,0.00,Wunderground v.1.13,2013-03-04 04:44:00,
2013-03-03 23:50:00,50.7,39.4,30.17,NNW,336,2.0,4.0,65,0.00,,,0.00,Wunderground v.1.13,2013-03-04 04:50:00,
2013-03-03 23:56:00,50.6,39.7,30.17,WNW,297,1.0,10.0,66,0.00,,,0.00,Wunderground v.1.13,2013-03-04 04:56:00,